Miscellaneous Local Product
Issued by NWS North Platte, NE

Home | Current Version | Previous Version | Text Only | Print | Product List | Glossary On
Versions: 1 2 3 4 5 6 7 8 9 10 11 12 13 14 15 16 17 18 19 20 21 22 23 24 25 26 27 28 29 30 31 32 33 34 35 36 37 38 39 40 41 42 43 44 45 46 47 48 49 50
957
AXUS43 KLBF 062010
MISLBF


WESTERN AND NORTH CENTRAL NEBRASKA HOURLY WEATHER ROUNDUP
NATIONAL WEATHER SERVICE NORTH PLATTE NE
300 PM CDT FRI MAY 06 2016

NOTE: "FAIR" INDICATES FEW OR NO CLOUDS BELOW 12,000 FEET WITH NO
SIGNIFICANT WEATHER AND/OR OBSTRUCTIONS TO VISIBILITY.

NOTE: STATIONS NOT REPORTING VARIABLES SUCH AS SKY/WEATHER OR
PRESSURE ARE PROVIDED BY RAWS AND APRS NETWORKS AND ARE NOT UNDER
NATIONAL WEATHER SERVICE QUALITY CONTROL.

...OBSERVATIONS IN AND NEAR THE EASTERN PANHANDLE OF NEBRASKA...

CITY           SKY/WX    TMP DP  RH WIND       PRES   REMARKS
PINE RIDGE     MOSUNNY   83  53  35 MISG      29.92S
CHADRON        CLOUDY    85  49  28 NE16      29.91R
ALLIANCE       CLOUDY    78  44  29 S12       29.92F
SIDNEY         SUNNY     80  49  33 SE17G23   29.93F
CRESCENT LAKE    N/A     80  47  30 SE9G16      N/A
BIG SPRINGS      N/A     79  50  36 SE13        N/A
$$

...OBSERVATIONS IN NORTHERN NEBRASKA AND FAR SOUTHERN SOUTH DAKOTA...

CITY           SKY/WX    TMP DP  RH WIND       PRES   REMARKS
WINNER         FAIR      87  51  28 SW15      29.85S
VALENTINE      PTSUNNY   86  38  18 S16       29.87F
THEDFORD       CLOUDY    85  45  25 S15G23    29.91F
AINSWORTH      MOSUNNY   84  47  27 S16G22    29.89F
O`NEILL        SUNNY     85  47  26 SW13G23   29.89F
ORD            MOSUNNY    3  32 100 S18G26    29.90F WCI -17
BROKEN BOW     MOSUNNY   83  51  33 S17G24    29.92F
BUTTE            N/A     87  49  26 SW13G22     N/A
CHAMBERS         N/A     84  53  33 S15         N/A
EWING            N/A     87  48  25 SW16        N/A
$$

...OBSERVATIONS IN SOUTHWEST NEBRASKA AND FAR NORTHEAST COLORADO...

CITY           SKY/WX    TMP DP  RH WIND       PRES   REMARKS
HOLYOKE        FAIR      84  43  23 SE15G21   29.91F
IMPERIAL       SUNNY     82  51  34 SE14      29.90F
OGALLALA       PTSUNNY   80  40  24 SE12G21   29.91F
NORTH PLATTE   CLOUDY    79  50  36 SE15      29.91F
MCCOOK         CLOUDY    81  52  36 S13G23    29.90F
LEXINGTON      CLOUDY    78  51  39 S17G25    29.92F
PAXTON           N/A     80  50  34 SE17        N/A
STAPLETON        N/A     83  51  32 CALM        N/A
GOTHENBURG       N/A     78  46  32 S12         N/A
CALLAWAY         N/A     81  51  35 S20         N/A
$$

...OBSERVATIONS IN CENTRAL LINCOLN COUNTY AREA...

CITY           SKY/WX    TMP DP  RH WIND       PRES   REMARKS
N.P. AIRPORT   CLOUDY    79  50  36 SE15      29.91F
N.P. DOWNTOWN    N/A     81  51  34 SE7G14      N/A
N.P. SOUTHEAST   N/A     80  53  39 S8G17       N/A
N.P. HILLCREST   N/A     80  50  34 S12G20      N/A
$$

...SOME OBSERVATIONS FROM AROUND THE REGION...

CITY           SKY/WX    TMP DP  RH WIND       PRES   REMARKS
DENVER         CLOUDY    79  33  19 E8        29.92F
LARAMIE        CLOUDY    64  37  36 W23G29    30.03R
CHEYENNE       CLOUDY    76  39  26 SE14G22   29.98F
SCOTTSBLUFF    MOSUNNY   78  47  33 E15G22    29.91F
RAPID CITY     CLOUDY    78  51  38 N25G37    29.97R
BISMARCK       CLOUDY    77  48  35 N22       29.97R
PIERRE         CLOUDY    84  50  30 N9        29.83S
SIOUX FALLS    MOSUNNY   85  50  29 W14G25    29.82F
OMAHA          PTSUNNY   87  42  20 SW15G28   29.91F
GRAND ISLAND   MOSUNNY   83  47  28 SW20G30   29.93F
KANSAS CITY    MOSUNNY   80  52  37 SW8       30.02F
WICHITA        MOSUNNY   82  48  30 S17       30.02F
OKLAHOMA CITY  PTSUNNY   80  50  34 S12G17    30.06F
DALLAS         MOSUNNY   83  45  26 CALM      30.05F
AMARILLO       SUNNY     84  40  21 S21G32    30.03F
DODGE CITY     SUNNY     80  50  34 S22G30    30.00F
HAYS           MOSUNNY   84  50  30 S23G29    29.95F
GOODLAND       SUNNY     86  33  15 S21G31    29.91F
$$




USA.gov is the U.S. government's official web portal to all federal, state and local government web resources and services.